Weather History for Grand Island, NE

Change the Weather History Date:

Wednesday, July 31, 2013

  Actual Average Record
Temperature  
Mean Temperature 74 °F 76 °F  
Max Temperature 85 °F 87 °F 108 °F (1935)
Min Temperature 63 °F 65 °F 47 °F (1925)
Degree Days  
Heating Degree Days 0 0  
Month to date heating degree days 3 0  
Since 1 June heating degree days 24 26  
Since 1 July heating degree days 3 2  
Cooling Degree Days 9 11  
Month to date cooling degree days 361 349  
Year to date cooling degree days 715 627  
Since 1 June cooling degree days 620 562  
Growing Degree Days 24 (Base 50)    
Moisture  
Dew Point 64 °F    
Average Humidity 74    
Maximum Humidity 100    
Minimum Humidity 47    
Precipitation  
Precipitation 0.00 in 0.11 in 3.12 in (1903)
Month to date precipitation 1.39 3.40  
Year to date precipitation 16.39 17.65  
Snow  
Snow 0.00 in 0.00 in - ()
Month to date snowfall 0.0 0.0  
Since 1 June snowfall 0.0 0.0  
Since 1 July snowfall 0.0 0.0  
Snow Depth 0.00 in    
Sea Level Pressure  
Sea Level Pressure 30.13 in    
Wind  
Wind Speed 5 mph (NNE)    
Max Wind Speed 15 mph    
Max Gust Speed 18 mph    
Visibility 7 miles    
Events      
T = Trace of Precipitation, MM = Missing Value Source: NWS Daily Summary

Daily Weather History Graph

Daily Weather History Graph

Search for Another Location

Airport:

Trip Planner

Search our weather history database for the weather conditions in past years. The results will help you decide how hot, cold, wet, or windy it might be!

Date:

Astronomy

Jul. 31, 2013 Rise Set
Actual Time 6:28 AM CDT 8:50 PM CDT
Civil Twilight 5:57 AM CDT 9:20 PM CDT
Nautical Twilight 5:19 AM CDT 9:58 PM CDT
Astronomical Twilight 4:36 AM CDT 10:41 PM CDT
Moon 1:24 AM CDT (7/31) 4:07 PM CDT (7/31)
Length of Visible Light 15h 23m
Length of Day
14h 21m
Waning Crescent, 31% of the Moon is Illuminated
Jul 31
Waning Crescent
Aug 6
New
Aug 14
First Quarter
Aug 20
Full
Aug 28
Last Quarter

Hourly Weather History & Observations

Time (CDT) Temp. Heat Index Dew Point Humidity Pressure Visibility Wind Dir Wind Speed Gust Speed Precip Events Conditions
12:53 AM 68.0 °F - 64.9 °F 90% 30.06 in 10.0 mi SSE 10.4 mph - N/A   Clear
2:53 AM 66.0 °F - 64.0 °F 93% 30.17 in 6.0 mi NW 15.0 mph - N/A   Partly Cloudy
3:08 AM 66.2 °F - 64.4 °F 94% 30.20 in 7.0 mi NW 11.5 mph - N/A   Mostly Cloudy
3:38 AM 66.2 °F - 64.4 °F 94% 30.15 in 7.0 mi South 3.5 mph - N/A   Partly Cloudy
3:53 AM 66.0 °F - 64.0 °F 93% 30.08 in 6.0 mi SSE 9.2 mph - N/A   Clear
4:53 AM 64.9 °F - 64.0 °F 97% 30.08 in 5.0 mi ESE 3.5 mph - N/A   Clear
5:53 AM 64.0 °F - 63.0 °F 96% 30.08 in 4.0 mi East 5.8 mph - N/A   Clear
6:39 AM 64.4 °F - 62.6 °F 94% 30.17 in 2.0 mi North 4.6 mph - N/A   Clear
6:49 AM 62.6 °F - 62.6 °F 100% 30.17 in 1.5 mi NNE 4.6 mph - N/A   Clear
6:53 AM 63.0 °F - 62.1 °F 97% 30.14 in 1.5 mi NNE 4.6 mph - N/A   Clear
7:34 AM 64.4 °F - 62.6 °F 94% 30.17 in 1.2 mi ENE 5.8 mph - N/A   Scattered Clouds
7:45 AM 64.4 °F - 64.4 °F 100% 30.18 in 1.5 mi Calm Calm - N/A   Mostly Cloudy
7:53 AM 64.9 °F - 64.0 °F 97% 30.15 in 1.0 mi East 3.5 mph - N/A   Mostly Cloudy
8:11 AM 66.2 °F - 64.4 °F 94% 30.20 in 2.0 mi North 4.6 mph - N/A   Overcast
8:53 AM 66.9 °F - 64.9 °F 93% 30.17 in 2.5 mi North 4.6 mph - N/A   Overcast
9:01 AM 68.0 °F - 64.4 °F 88% 30.20 in 3.0 mi NNW 3.5 mph - N/A   Overcast
9:26 AM 69.8 °F - 66.2 °F 88% 30.18 in 5.0 mi ENE 3.5 mph - N/A   Scattered Clouds
9:53 AM 71.1 °F - 64.9 °F 81% 30.15 in 7.0 mi Calm Calm - N/A   Scattered Clouds
10:53 AM 77.0 °F - 64.9 °F 66% 30.15 in 10.0 mi WNW 6.9 mph - N/A   Clear
11:53 AM 80.1 °F 81.5 °F 63.0 °F 56% 30.15 in 10.0 mi NNE 9.2 mph - N/A   Clear
12:53 PM 80.1 °F 81.5 °F 63.0 °F 56% 30.14 in 10.0 mi Variable 3.5 mph - N/A   Partly Cloudy
1:53 PM 82.0 °F 82.7 °F 61.0 °F 49% 30.13 in 10.0 mi Variable 5.8 mph - N/A   Mostly Cloudy
2:53 PM 84.9 °F 85.4 °F 62.1 °F 46% 30.12 in 10.0 mi Variable 5.8 mph - N/A   Mostly Cloudy
3:53 PM 84.0 °F 84.9 °F 63.0 °F 49% 30.11 in 10.0 mi NW 6.9 mph - N/A   Overcast
4:53 PM 82.0 °F 83.4 °F 64.0 °F 54% 30.09 in 10.0 mi NNW 5.8 mph - N/A   Overcast
5:53 PM 82.9 °F 84.6 °F 64.9 °F 54% 30.08 in 10.0 mi North 3.5 mph - N/A   Mostly Cloudy
6:53 PM 80.1 °F 81.9 °F 64.9 °F 60% 30.08 in 10.0 mi Calm Calm - N/A   Partly Cloudy
7:53 PM 80.1 °F 82.1 °F 66.0 °F 62% 30.09 in 10.0 mi Calm Calm - N/A   Clear
8:53 PM 77.0 °F - 66.9 °F 71% 30.09 in 10.0 mi South 3.5 mph - N/A   Scattered Clouds
9:53 PM 73.9 °F - 66.9 °F 79% 30.11 in 10.0 mi WSW 3.5 mph - N/A   Clear
10:53 PM 72.0 °F - 66.9 °F 84% 30.13 in 10.0 mi SSW 4.6 mph - N/A   Clear
11:53 PM 70.0 °F - 66.0 °F 87% 30.12 in 10.0 mi Calm Calm - N/A   Clear